Wind_Speed
30 30 31 31 31 32 32 33 34 34 34 35 36 37 37 37 36 35 36 35 35 36 37 37 38 37 39 41 41 44 43 43 42 40 40 38 38 38 41 40 40 40 42
31 32 32 31 31 31 32 32 31 31 32 33 36 37 38 38 38 38 38 38 39 39 38 39 39 39 40 41 45 45 44 44 43 41 42 42 42 42 42 43 45 46 45
32 34 34 34 33 32 32 33 31 32 32 33 34 36 36 37 38 39 40 40 40 41 41 41 41 42 44 43 44 47 48 45 45 44 42 43 43 44 41 44 44 49 50
33 35 36 35 33 32 31 32 32 35 36 36 36 36 36 37 38 39 40 41 42 42 42 43 41 43 43 44 46 48 49 49 47 46 48 48 47 46 46 48 49 52 53
36 37 37 36 35 34 34 35 36 38 40 41 41 40 40 40 40 40 42 43 43 43 43 43 45 45 46 46 46 46 49 51 52 52 53 51 51 52 54 58 55 58 54
39 37 38 37 37 36 36 36 38 40 41 41 42 43 44 43 42 42 42 42 43 44 44 43 43 43 42 44 46 47 49 53 53 55 57 57 59 62 60 60 61 58 55
41 40 38 39 37 37 35 37 39 41 41 41 40 40 40 42 43 44 43 43 44 43 43 44 44 44 43 43 45 48 49 48 51 53 56 58 59 60 61 62 62 61 61
39 38 41 41 39 36 36 38 38 39 39 40 40 40 40 40 41 41 43 44 45 45 45 44 44 44 45 46 47 50 53 55 57 59 60 60 60 62 62 62 63 63 63
43 44 44 41 39 39 40 39 39 38 39 39 40 42 42 41 41 41 42 43 44 44 46 45 46 46 47 48 50 53 56 58 59 60 61 62 63 63 65 65 65 66 64
43 42 41 42 42 42 40 41 41 41 41 40 39 39 41 41 40 40 42 43 45 45 46 45 46 47 48 50 52 54 56 58 59 62 64 66 66 65 65 65 66 65 63
46 46 45 45 44 43 42 43 44 42 44 45 45 44 44 44 42 41 43 45 46 46 47 47 48 49 50 52 54 56 57 60 63 64 65 65 65 66 67 67 66 63 62
45 44 44 44 45 44 44 45 48 50 50 49 49 50 48 47 45 41 42 47 48 49 50 51 51 53 54 56 58 60 61 63 64 65 66 67 68 68 68 68 68 64 61
46 44 46 45 46 47 48 49 51 52 52 49 49 49 48 49 48 47 45 46 49 52 53 53 56 58 57 57 58 60 61 64 66 69 71 72 70 68 68 68 68 68 66
45 46 47 48 50 51 50 51 53 52 52 51 49 50 50 51 51 51 50 50 50 51 52 51 52 55 57 59 59 62 64 66 68 69 71 72 71 70 70 69 70 72 73
47 46 49 52 52 52 52 54 56 56 56 55 53 53 53 52 52 52 53 54 53 51 49 51 53 56 58 60 61 63 65 68 68 68 67 67 68 69 72 74 74 75 74
57 58 60 60 58 55 54 54 55 55 57 58 58 57 57 57 56 55 55 58 58 56 55 56 57 58 58 57 58 60 62 65 65 65 67 69 71 73 74 75 78 79 78
67 69 67 64 60 55 53 52 54 57 60 61 60 59 60 61 62 62 60 61 61 61 60 61 61 63 62 62 60 59 60 62 64 64 68 72 73 74 75 76 78 79 77
69 69 69 65 61 59 59 59 58 59 61 62 63 61 63 65 65 66 65 65 67 67 67 66 66 66 70 72 70 67 67 71 71 67 65 67 71 74 76 77 75 75 78
69 69 72 72 67 64 62 63 62 62 63 66 66 64 67 65 63 63 67 69 69 70 69 70 69 71 65 69 70 72 66 65 66 66 66 66 66 67 70 75 77 79 82
74 72 72 74 73 70 68 68 69 66 64 60 62 66 68 66 65 68 69 73 74 74 72 69 68 65 65 67 66 61 59 60 59 61 63 61 65 67 68 73 73 75 75
76 80 79 75 74 74 68 69 70 67 68 66 65 68 68 68 67 67 68 70 70 68 63 63 61 61 62 64 57 56 58 59 63 66 68 69 70 67 68 73 73 74 76
74 78 84 80 68 68 68 69 73 71 69 71 67 64 63 63 60 63 65 66 67 60 58 58 60 59 61 59 62 62 64 63 70 71 73 74 79 74 74 71 73 78 77
81 77 75 73 74 73 71 73 74 76 72 72 67 67 63 60 63 62 64 65 62 56 57 60 62 64 65 65 70 74 76 72 72 77 78 83 93 83 77 67 69 73 75
84 84 79 77 74 78 74 79 76 73 72 70 67 69 64 65 70 72 70 65 53 58 63 66 69 71 70 74 76 79 78 73 79 82 83 89 93 96 81 69 68 71 74
93 90 88 83 76 77 80 76 69 69 68 67 67 64 67 64 64 58 68 67 61 63 64 63 69 72 73 75 79 77 77 80 81 86 89 92 94 95 82 68 68 73 72
97 94 93 80 76 77 74 77 80 56 64 67 62 55 59 54 56 55 57 62 65 69 66 65 67 68 70 77 80 83 87 88 88 95 95 98 92 89 84 66 69 70 74
Wind_Direction
265 266 266 266 267 267 267 266 265 265 265 265 265 265 265 266 266 268 268 268 268 268 269 268 268 265 265 267 269 272 274 278 280 285 290 290 291 293 298 301 303 305 310
264 262 262 263 264 265 265 265 265 266 265 266 266 266 265 264 265 266 268 268 267 268 269 268 266 266 265 265 265 266 271 274 274 278 282 285 287 287 291 298 303 303 301
265 262 260 260 262 263 266 269 271 272 272 271 270 269 268 267 265 266 267 268 269 269 272 272 270 268 268 268 267 267 268 267 265 275 278 276 277 276 280 289 291 294 297
268 262 261 260 260 262 266 268 271 273 274 273 271 270 270 270 271 271 271 270 270 271 272 272 272 269 267 268 265 266 266 265 265 272 273 274 278 278 281 280 283 291 292
267 262 260 261 259 259 262 266 269 270 270 270 270 271 272 273 273 272 272 272 272 273 273 273 273 271 269 268 267 266 264 261 263 267 269 270 276 279 278 280 279 285 286
267 266 262 260 259 261 261 264 266 267 267 269 270 271 272 273 273 274 273 274 275 274 273 273 272 271 269 267 266 266 263 262 265 268 270 272 275 277 278 278 279 280 279
265 264 261 256 257 258 261 263 264 265 267 269 271 272 274 273 272 273 274 273 272 272 271 271 271 270 270 267 265 264 263 265 266 269 271 274 275 276 276 277 278 280 280
265 259 253 252 256 259 263 264 265 267 273 274 273 273 273 274 275 276 277 277 276 274 271 270 269 269 269 268 267 266 265 265 267 269 271 275 274 273 275 276 276 276 277
260 255 255 255 257 261 264 266 267 267 270 274 277 277 275 275 277 279 278 276 276 274 272 269 267 267 267 267 267 267 267 268 270 271 273 275 275 276 275 273 273 275 275
266 265 259 257 260 265 267 269 271 272 274 275 278 279 279 279 280 281 281 280 276 274 273 271 270 270 269 270 270 270 270 271 272 273 274 275 276 275 274 273 273 272 272
262 261 261 261 263 265 269 273 275 277 278 280 281 281 281 280 281 281 279 280 278 274 271 270 271 270 269 269 270 271 273 273 273 274 276 277 277 276 275 275 273 272 271
266 265 264 264 264 270 272 275 278 277 277 277 277 278 280 280 282 279 276 275 275 274 272 270 269 268 269 270 271 271 273 275 276 278 278 277 277 278 276 275 274 272 269
260 256 257 259 263 267 270 273 275 277 278 279 278 278 277 278 279 279 275 269 270 272 271 271 272 272 273 274 275 277 278 280 283 284 283 282 280 277 274 272 271 270 267
260 260 261 264 265 267 271 274 276 276 277 278 278 277 276 276 277 279 278 274 271 270 273 275 277 276 278 278 279 281 283 284 284 284 284 285 286 285 282 277 272 268 263
260 265 269 269 270 270 269 272 274 275 277 278 278 277 275 275 275 275 274 275 275 272 274 276 279 282 284 284 284 284 284 286 287 289 291 292 290 287 283 276 272 271 268
259 264 266 270 271 273 272 271 272 274 276 278 279 278 276 274 274 273 273 273 272 271 271 279 284 286 288 289 289 292 294 295 295 295 292 290 288 285 282 280 279 275 271
265 266 268 270 271 271 269 269 272 275 277 278 277 275 276 276 276 276 273 271 273 274 276 277 280 284 290 292 292 292 292 292 292 290 288 283 281 281 281 280 277 275 273
267 268 268 270 269 271 272 272 271 272 274 276 276 274 276 276 275 274 272 270 271 273 274 280 284 286 288 288 290 292 292 292 291 290 287 286 284 282 281 280 279 276 271
260 265 265 268 270 272 272 271 269 269 270 270 269 269 269 269 268 268 268 268 271 274 280 284 286 285 286 286 287 289 291 288 286 287 290 290 288 284 283 280 278 277 274
260 258 263 266 268 273 273 270 270 269 267 263 263 264 266 268 269 270 271 272 275 278 282 283 283 284 286 284 286 289 292 293 294 296 297 295 291 290 284 280 277 278 275
262 264 264 265 268 272 271 270 267 266 264 262 264 266 267 268 270 274 277 278 280 281 283 284 284 285 282 285 287 292 293 293 292 292 299 307 307 297 293 283 277 276 276
262 263 263 265 265 266 267 266 263 262 260 262 264 267 268 271 271 273 277 277 278 279 282 283 280 277 280 283 288 293 299 304 310 303 304 310 314 318 298 295 284 276 273
257 256 258 262 263 261 266 259 259 260 260 262 262 266 269 269 273 275 278 276 276 280 279 280 277 276 280 288 290 291 295 299 312 305 304 320 320 317 310 290 282 276 275
255 254 255 258 262 264 257 253 255 258 261 262 265 266 268 268 266 268 267 272 278 281 276 276 276 274 283 289 292 292 293 296 308 314 309 312 317 317 308 296 284 279 278
253 256 260 259 265 262 257 254 256 259 263 262 264 265 268 267 274 277 272 275 274 279 278 282 278 280 285 292 294 298 292 304 308 310 309 314 316 317 307 293 284 284 280
259 260 261 260 258 261 269 267 259 268 268 262 266 266 267 269 273 273 270 270 269 276 278 287 285 286 291 295 296 301 300 301 306 305 309 313 316 312 312 294 292 288 288
Height
5818 5818 5818 5818 5819 5820 5819 5820 5821 5821 5821 5821 5822 5823 5823 5824 5825 5825 5826 5827 5828 5829 5831 5831 5833 5833 5834 5834 5836 5836 5837 5838 5839 5838 5838 5839 5841 5842 5842 5841 5842 5841 5841
5811 5811 5811 5811 5811 5812 5813 5813 5813 5813 5812 5812 5813 5813 5814 5815 5815 5816 5818 5818 5819 5820 5821 5823 5824 5825 5826 5826 5827 5829 5829 5830 5832 5831 5830 5832 5833 5833 5834 5834 5834 5834 5834
5804 5804 5804 5803 5804 5805 5804 5804 5804 5804 5803 5803 5803 5804 5804 5805 5805 5806 5807 5808 5810 5810 5811 5813 5814 5815 5816 5817 5819 5819 5821 5822 5822 5824 5824 5824 5824 5825 5825 5827 5828 5826 5826
5796 5796 5795 5795 5796 5796 5796 5796 5795 5795 5795 5795 5794 5794 5794 5794 5795 5797 5797 5797 5798 5799 5800 5802 5802 5805 5806 5807 5808 5809 5810 5812 5815 5815 5815 5814 5816 5816 5815 5817 5818 5817 5818
5787 5787 5787 5789 5789 5789 5789 5788 5788 5787 5786 5786 5786 5786 5786 5786 5787 5787 5787 5788 5788 5789 5789 5790 5792 5794 5795 5797 5798 5799 5800 5803 5804 5804 5804 5806 5806 5804 5805 5806 5807 5807 5808
5778 5778 5778 5779 5780 5780 5780 5780 5779 5779 5778 5777 5776 5776 5776 5777 5778 5778 5777 5777 5778 5778 5778 5779 5781 5783 5784 5786 5787 5788 5790 5792 5792 5793 5794 5795 5795 5795 5796 5796 5795 5795 5795
5767 5768 5769 5770 5770 5771 5772 5772 5771 5770 5769 5768 5767 5767 5767 5767 5767 5768 5768 5768 5768 5768 5768 5769 5770 5771 5772 5774 5775 5776 5778 5779 5781 5781 5782 5783 5782 5782 5783 5784 5783 5783 5782
5757 5758 5758 5759 5761 5762 5762 5762 5762 5762 5762 5762 5761 5759 5758 5758 5758 5758 5758 5758 5759 5758 5758 5759 5759 5760 5761 5762 5763 5763 5763 5765 5766 5767 5768 5768 5768 5769 5768 5769 5769 5769 5768
5746 5747 5748 5750 5750 5751 5751 5751 5751 5751 5750 5751 5751 5751 5749 5748 5747 5746 5747 5746 5746 5746 5748 5748 5748 5749 5749 5749 5749 5749 5750 5751 5752 5752 5752 5753 5753 5753 5753 5754 5755 5755 5754
5737 5739 5739 5740 5740 5740 5740 5740 5740 5741 5740 5740 5739 5740 5740 5741 5739 5738 5735 5735 5734 5734 5735 5736 5737 5737 5738 5739 5738 5737 5738 5738 5737 5737 5737 5738 5737 5737 5738 5738 5739 5738 5739
5725 5726 5728 5729 5729 5729 5729 5729 5728 5729 5729 5729 5729 5728 5729 5728 5728 5727 5726 5723 5722 5721 5722 5722 5723 5723 5723 5723 5723 5723 5723 5723 5724 5723 5722 5721 5721 5721 5721 5720 5720 5722 5723
5712 5714 5716 5717 5717 5717 5717 5716 5715 5715 5715 5715 5715 5715 5715 5715 5714 5714 5714 5713 5711 5709 5710 5710 5709 5710 5709 5709 5709 5707 5708 5708 5708 5707 5706 5704 5704 5704 5704 5704 5704 5704 5705
5699 5699 5700 5702 5703 5703 5703 5702 5702 5701 5701 5701 5701 5701 5701 5701 5702 5701 5701 5700 5699 5695 5695 5696 5695 5695 5695 5694 5694 5692 5691 5690 5690 5690 5688 5688 5687 5687 5686 5686 5687 5687 5687
5688 5687 5688 5688 5689 5689 5689 5689 5688 5688 5688 5688 5688 5688 5688 5688 5687 5688 5688 5688 5686 5685 5682 5682 5680 5680 5680 5678 5677 5675 5674 5672 5670 5670 5668 5668 5667 5668 5668 5668 5667 5666 5667
5673 5674 5676 5675 5674 5674 5675 5674 5674 5673 5673 5673 5673 5673 5674 5674 5673 5673 5673 5673 5673 5671 5666 5666 5666 5662 5663 5661 5661 5659 5659 5655 5652 5649 5647 5646 5646 5646 5646 5645 5645 5645 5644
5657 5656 5657 5659 5659 5659 5660 5660 5659 5659 5659 5658 5658 5658 5658 5659 5659 5658 5658 5658 5657 5657 5655 5652 5650 5648 5646 5642 5641 5640 5639 5638 5635 5633 5630 5626 5626 5625 5625 5623 5622 5621 5621
5639 5639 5639 5639 5641 5641 5642 5643 5645 5644 5643 5643 5642 5642 5643 5643 5643 5643 5641 5640 5641 5641 5639 5636 5634 5630 5626 5626 5626 5625 5623 5620 5619 5615 5612 5608 5605 5603 5602 5600 5599 5598 5597
5621 5619 5619 5621 5622 5623 5623 5624 5624 5627 5627 5626 5626 5625 5625 5625 5625 5625 5625 5625 5624 5622 5620 5616 5615 5615 5612 5609 5607 5606 5603 5600 5599 5597 5591 5588 5584 5582 5579 5576 5574 5574 5573
5603 5603 5604 5606 5606 5608 5608 5607 5607 5607 5608 5608 5608 5606 5606 5607 5607 5608 5609 5607 5605 5604 5602 5601 5599 5595 5593 5591 5590 5590 5589 5589 5586 5580 5573 5569 5565 5563 5559 5553 5552 5551 5550
5585 5584 5586 5588 5589 5589 5589 5589 5590 5589 5589 5590 5590 5589 5589 5588 5590 5590 5589 5587 5587 5586 5584 5583 5581 5578 5577 5575 5575 5575 5575 5573 5569 5563 5557 5553 5548 5543 5537 5531 5531 5527 5525
5568 5567 5565 5566 5567 5569 5572 5572 5570 5571 5570 5571 5571 5571 5571 5572 5570 5570 5570 5570 5569 5568 5568 5567 5564 5561 5559 5558 5557 5558 5556 5555 5552 5546 5541 5538 5532 5525 5514 5509 5506 5502 5498
5547 5546 5547 5548 5547 5549 5552 5551 5550 5550 5552 5553 5553 5553 5553 5553 5552 5552 5552 5551 5551 5550 5551 5550 5548 5544 5542 5542 5540 5537 5536 5535 5535 5525 5521 5519 5508 5502 5493 5486 5480 5473 5471
5522 5525 5526 5526 5528 5528 5531 5530 5529 5531 5531 5532 5534 5534 5535 5534 5534 5536 5535 5533 5534 5534 5533 5533 5530 5528 5526 5522 5520 5518 5514 5512 5507 5500 5494 5491 5480 5478 5469 5463 5456 5447 5442
5499 5501 5503 5505 5506 5509 5508 5508 5508 5510 5511 5513 5515 5515 5515 5516 5516 5517 5516 5517 5516 5517 5517 5514 5512 5508 5506 5503 5500 5497 5494 5491 5483 5474 5464 5465 5452 5446 5440 5436 5430 5423 5416
5473 5476 5479 5482 5483 5488 5489 5487 5487 5490 5492 5496 5497 5496 5497 5498 5497 5497 5499 5499 5498 5497 5497 5495 5493 5491 5487 5482 5477 5475 5469 5463 5459 5455 5439 5432 5425 5419 5413 5409 5405 5401 5394
5447 5448 5452 5457 5460 5466 5467 5468 5470 5471 5473 5475 5477 5476 5478 5479 5479 5481 5480 5479 5479 5476 5477 5475 5472 5468 5466 5462 5454 5450 5445 5438 5429 5433 5408 5406 5398 5385 5387 5387 5380 5371 5367